timestamp,surface_pressure_avg,surface_temp_avg,battery_voltage,lat,long
2022-10-11 00:09:00+00:00,373.9129,13.9,11.77,47.84626,-54.09684
2022-10-11 00:19:00+00:00,372.4697,13.9,11.77,47.84626,-54.09684
2022-10-11 00:29:00+00:00,370.9847,13.9,11.77,47.84626,-54.09684
2022-10-11 00:39:00+00:00,372.8196,13.9,11.77,47.84626,-54.09684
2022-10-11 00:49:00+00:00,370.713,13.9,11.77,47.84626,-54.09684
2022-10-11 00:59:00+00:00,364.7112,13.9,11.77,47.84626,-54.09684
2022-10-11 01:09:00+00:00,355.8412,13.9,11.77,47.84626,-54.09684
2022-10-11 01:19:00+00:00,352.0179,13.9,11.7,47.84626,-54.09684
2022-10-11 01:29:00+00:00,350.5047,13.9,11.7,47.84626,-54.09684
2022-10-11 01:39:00+00:00,343.92800000000005,13.9,11.7,47.84626,-54.09684
2022-10-11 01:49:00+00:00,334.6929,13.89,11.7,47.84626,-54.09684
2022-10-11 01:59:00+00:00,330.5813,13.89,11.7,47.84626,-54.09684
2022-10-11 02:09:00+00:00,328.6146,13.89,11.7,47.84626,-54.09684
2022-10-11 02:19:01+00:00,318.2463,13.85,11.7,47.84626,-54.09684
2022-10-11 02:29:01+00:00,311.3563,13.82,11.7,47.84626,-54.09684
2022-10-11 02:39:01+00:00,307.8513,13.82,11.7,47.84626,-54.09684
2022-10-11 02:49:01+00:00,296.1547,13.8,11.7,47.84626,-54.09684
2022-10-11 02:59:01+00:00,282.4081,13.8,11.7,47.84626,-54.09684
2022-10-11 03:09:01+00:00,278.3047,13.8,11.7,47.84626,-54.09684
2022-10-11 03:19:01+00:00,274.0647,13.8,11.7,47.84626,-54.09684
2022-10-11 03:29:01+00:00,259.1131,13.8,11.7,47.84626,-54.09684
2022-10-11 03:39:01+00:00,247.8897,13.8,11.7,47.84626,-54.09684
2022-10-11 03:49:01+00:00,247.4181,13.8,11.7,47.84626,-54.09684
2022-10-11 03:59:01+00:00,239.7765,13.8,11.7,47.84626,-54.09684
2022-10-11 04:09:01+00:00,224.5498,13.8,11.7,47.84626,-54.09684
2022-10-11 04:19:00+00:00,217.2498,13.79,11.7,47.84626,-54.09684
2022-10-11 04:29:00+00:00,213.3965,13.78,11.7,47.84626,-54.09684
2022-10-11 04:39:00+00:00,203.3081,13.77,11.7,47.84626,-54.09684
2022-10-11 04:49:00+00:00,194.2331,13.74,11.7,47.84626,-54.09684
2022-10-11 04:59:00+00:00,191.9948,13.71,11.7,47.84626,-54.09684
2022-10-11 05:09:00+00:00,187.0714,13.71,11.7,47.84626,-54.09684
2022-10-11 05:19:00+00:00,180.0614,13.7,11.7,47.84626,-54.09684
2022-10-11 05:29:00+00:00,180.4881,13.4,11.7,47.84626,-54.09684
2022-10-11 05:39:00+00:00,182.2448,13.2,11.7,47.84626,-54.09684
2022-10-11 05:49:00+00:00,181.0831,13.26,11.7,47.84626,-54.09684
2022-10-11 05:59:00+00:00,179.4198,13.3,11.7,47.84626,-54.09684
2022-10-11 06:09:00+00:00,178.6632,13.39,11.7,47.84626,-54.09684
2022-10-11 06:19:00+00:00,181.2465,13.4,11.7,47.84626,-54.09684
2022-10-11 06:29:00+00:00,183.1015,13.4,11.7,47.84626,-54.09684
2022-10-11 06:39:00+00:00,184.3765,13.4,11.7,47.84626,-54.09684
2022-10-11 06:49:00+00:00,189.0248,13.4,11.7,47.84626,-54.09684
2022-10-11 06:59:00+00:00,192.5081,13.4,11.7,47.84626,-54.09684
2022-10-11 07:09:00+00:00,196.7181,13.37,11.7,47.84626,-54.09684
2022-10-11 07:19:00+00:00,203.1064,13.36,11.7,47.84626,-54.09684
2022-10-11 07:29:00+00:00,207.1014,13.33,11.7,47.84626,-54.09684
2022-10-11 07:39:00+00:00,210.1565,13.3,11.7,47.84626,-54.09684
2022-10-11 07:49:00+00:00,216.3664,13.24,11.7,47.84626,-54.09684
2022-10-11 07:59:00+00:00,222.3748,13.3,11.7,47.84626,-54.09684
2022-10-11 08:09:00+00:00,226.0247,13.3,11.7,47.84626,-54.09684
2022-10-11 08:19:00+00:00,231.7814,13.2,11.7,47.84626,-54.09684
2022-10-11 08:29:00+00:00,236.6931,13.1,11.7,47.84626,-54.09684
2022-10-11 08:39:00+00:00,237.3847,13.1,11.7,47.84626,-54.09684
2022-10-11 08:49:00+00:00,242.7581,13.0,11.7,47.84626,-54.09684
2022-10-11 08:59:00+00:00,251.5747,13.02,11.7,47.84626,-54.09684
2022-10-11 09:09:00+00:00,255.1214,13.22,11.7,47.84626,-54.09684
2022-10-11 09:19:00+00:00,257.6197,13.34,11.7,47.84626,-54.09684
2022-10-11 09:29:00+00:00,264.2764,13.44,11.7,47.84626,-54.09684
2022-10-11 09:39:00+00:00,269.3331,13.59,11.7,47.84626,-54.09684
2022-10-11 09:49:00+00:00,272.8064,13.7,11.7,47.84626,-54.09684
2022-10-11 09:59:00+00:00,280.9181,13.8,11.7,47.84626,-54.09684
2022-10-11 10:09:00+00:00,288.7847,13.8,11.7,47.84626,-54.09684
2022-10-11 10:19:01+00:00,294.348,13.8,11.77,47.84626,-54.09684
2022-10-11 10:29:01+00:00,302.2264,13.81,11.77,47.84626,-54.09684
2022-10-11 10:39:01+00:00,314.0047,13.8,11.77,47.84626,-54.09684
2022-10-11 10:49:01+00:00,323.1113,13.8,11.77,47.84626,-54.09684
2022-10-11 10:59:01+00:00,327.1763,13.8,11.77,47.84626,-54.09684
2022-10-11 11:09:01+00:00,334.8364,13.87,11.77,47.84626,-54.09684
2022-10-11 11:19:00+00:00,345.17800000000005,13.85,12.25,47.84626,-54.09684
2022-10-11 11:29:00+00:00,351.8864,13.81,12.25,47.84626,-54.09684
2022-10-11 11:39:00+00:00,353.3946,13.8,12.25,47.84626,-54.09684
2022-10-11 11:49:00+00:00,358.588,13.8,12.25,47.84626,-54.09684
2022-10-11 11:59:00+00:00,364.5679,13.8,12.25,47.84626,-54.09684
2022-10-11 12:09:00+00:00,363.8796,13.8,12.25,47.84626,-54.09684
2022-10-11 12:19:01+00:00,365.5763,13.8,12.25,47.84626,-54.09684
2022-10-11 12:29:01+00:00,370.6996,13.8,12.25,47.84626,-54.09684
2022-10-11 12:39:01+00:00,369.56800000000004,13.8,12.25,47.84626,-54.09684
2022-10-11 12:49:01+00:00,367.0547,13.8,12.25,47.84626,-54.09684
2022-10-11 12:59:01+00:00,370.3347,13.84,12.25,47.84626,-54.09684
2022-10-11 13:09:01+00:00,371.5213,13.8,12.25,47.84626,-54.09684
2022-10-11 13:19:00+00:00,367.0262,13.81,12.25,47.84626,-54.09684
2022-10-11 13:29:00+00:00,364.4378,13.89,12.25,47.84626,-54.09684
2022-10-11 13:39:00+00:00,362.9796,13.9,12.25,47.84626,-54.09684
2022-10-11 13:49:00+00:00,357.7729,13.9,12.25,47.84626,-54.09684
2022-10-11 13:59:00+00:00,351.0814,13.9,12.25,47.84626,-54.09684
2022-10-11 14:09:00+00:00,347.1846,13.9,12.25,47.84626,-54.09684
2022-10-11 14:19:00+00:00,342.8345,13.9,12.09,47.84626,-54.09684
2022-10-11 14:29:00+00:00,336.2563,13.9,12.09,47.84626,-54.09684
2022-10-11 14:39:00+00:00,326.1313,13.9,12.09,47.84626,-54.09684
2022-10-11 14:49:00+00:00,320.8846,13.9,12.09,47.84626,-54.09684
2022-10-11 14:59:00+00:00,315.0646,13.9,12.09,47.84626,-54.09684
2022-10-11 15:09:00+00:00,303.0064,13.9,12.09,47.84626,-54.09684
2022-10-11 15:19:01+00:00,291.2047,13.9,12.09,47.84626,-54.09684
2022-10-11 15:29:01+00:00,284.9464,13.9,12.09,47.84626,-54.09684
2022-10-11 15:39:01+00:00,274.9865,13.9,12.09,47.84626,-54.09684
2022-10-11 15:49:01+00:00,262.483,13.9,12.09,47.84626,-54.09684
2022-10-11 15:59:01+00:00,254.6098,13.9,12.09,47.84626,-54.09684
2022-10-11 16:09:01+00:00,249.1381,13.9,12.09,47.84626,-54.09684
2022-10-11 16:19:00+00:00,237.4265,13.89,12.01,47.84626,-54.09684
2022-10-11 16:29:00+00:00,224.9281,13.9,12.01,47.84626,-54.09684
2022-10-11 16:39:00+00:00,217.8514,13.9,12.01,47.84626,-54.09684
2022-10-11 16:49:00+00:00,207.4431,13.89,12.01,47.84626,-54.09684
2022-10-11 16:59:00+00:00,195.3031,13.9,12.01,47.84626,-54.09684
2022-10-11 17:09:00+00:00,190.8548,13.9,12.01,47.84626,-54.09684
2022-10-11 17:19:00+00:00,186.1964,13.9,12.17,47.84626,-54.09684
2022-10-11 17:29:00+00:00,173.5948,13.9,12.17,47.84626,-54.09684
2022-10-11 17:39:00+00:00,164.5248,13.9,12.17,47.84626,-54.09684
2022-10-11 17:49:00+00:00,165.1365,13.9,12.17,47.84626,-54.09684
2022-10-11 17:59:00+00:00,161.0615,13.9,12.17,47.84626,-54.09684
2022-10-11 18:09:00+00:00,151.8582,13.9,12.17,47.84626,-54.09684
2022-10-11 18:19:01+00:00,153.1582,13.9,12.01,47.84626,-54.09684
2022-10-11 18:29:01+00:00,156.2649,13.9,12.01,47.84626,-54.09684
2022-10-11 18:39:01+00:00,153.5515,13.9,12.01,47.84626,-54.09684
2022-10-11 18:49:01+00:00,156.8232,13.9,12.01,47.84626,-54.09684
2022-10-11 18:59:01+00:00,163.6982,13.9,12.01,47.84626,-54.09684
2022-10-11 19:09:01+00:00,164.0581,13.9,12.01,47.84626,-54.09684
2022-10-11 19:19:00+00:00,167.9748,13.9,11.93,47.84626,-54.09684
2022-10-11 19:29:00+00:00,177.0331,13.9,11.93,47.84626,-54.09684
2022-10-11 19:39:00+00:00,178.6715,13.9,11.93,47.84626,-54.09684
2022-10-11 19:49:00+00:00,181.1148,13.9,11.93,47.84626,-54.09684
2022-10-11 19:59:00+00:00,193.3965,13.9,11.93,47.84626,-54.09684
2022-10-11 20:09:00+00:00,200.9498,13.9,11.93,47.84626,-54.09684
2022-10-11 20:19:00+00:00,198.9865,13.9,11.86,47.84626,-54.09684
2022-10-11 20:29:00+00:00,206.4464,13.9,11.86,47.84626,-54.09684
2022-10-11 20:39:00+00:00,218.8514,13.9,11.86,47.84626,-54.09684
2022-10-11 20:49:00+00:00,221.2631,13.9,11.86,47.84626,-54.09684
2022-10-11 20:59:00+00:00,222.2048,13.9,11.86,47.84626,-54.09684
2022-10-11 21:09:00+00:00,229.2598,13.9,11.86,47.84626,-54.09684
2022-10-11 21:19:00+00:00,236.7314,13.89,11.86,47.84626,-54.09684
2022-10-11 21:29:00+00:00,239.8331,13.9,11.86,47.84626,-54.09684
2022-10-11 21:39:00+00:00,242.7914,13.9,11.86,47.84626,-54.09684
2022-10-11 21:49:00+00:00,248.5414,13.89,11.86,47.84626,-54.09684
2022-10-11 21:59:00+00:00,253.9981,13.87,11.86,47.84626,-54.09684
2022-10-11 22:09:00+00:00,259.0181,13.89,11.86,47.84626,-54.09684
2022-10-11 22:19:00+00:00,266.2881,13.88,11.77,47.84626,-54.09684
2022-10-11 22:29:00+00:00,274.3914,13.85,11.77,47.84626,-54.09684
2022-10-11 22:39:00+00:00,279.8314,13.88,11.77,47.84626,-54.09684
2022-10-11 22:49:00+00:00,287.793,13.89,11.77,47.84626,-54.09684
2022-10-11 22:59:00+00:00,301.0497,13.86,11.77,47.84626,-54.09684
2022-10-11 23:09:00+00:00,307.718,13.84,11.77,47.84626,-54.09684
2022-10-11 23:19:01+00:00,312.0714,13.82,11.77,47.84626,-54.09684
2022-10-11 23:29:01+00:00,320.2629,13.8,11.77,47.84626,-54.09684
2022-10-11 23:39:01+00:00,330.0897,13.8,11.77,47.84626,-54.09684
2022-10-11 23:49:01+00:00,333.6280000000001,13.8,11.77,47.84626,-54.09684
2022-10-11 23:59:01+00:00,336.8297,13.8,11.77,47.84626,-54.09684
